COSMOS 2360

导读

**COSMOS 2360卫星摘要** COSMOS 2360是独联体(CIS)于1998年7月28日发射的军用卫星,隶属于苏联/俄罗斯"宇宙"(COSMOS)系列卫星。该系列自1962年起发射了超过2500颗卫星,涵盖军事侦察、科学实验等多种任务,采用统一命名方式保密卫星真实用途。作为冷战后独联体时期发射的成员,COSMOS 2360延续了系列保密传统,具体任务参数未公开,是俄罗斯保持太空情报能力的重要组成部分。

基本信息
目录编号:
25406
目录名称:
COSMOS 2360
国际标识:
1998-045A
轨道中心:
EARTH
卫星名称:
COSMOS 2360
卫星全名:
--
卫星状态:
在轨 (已飞行10186 天)
发射日期:
1998-07-28 UTC
国别 :
俄罗斯(独联体) (CIS)
星等 :
--
轨道信息
数据来源 国际轨道数据 AOE轨道数据
星历时间 2026-06-17T08:26:59+0800
14小时前
查看轨道信息
2026-06-17T04:00:00+0800
18小时前
查看轨道信息
半长轴 7229.237km 7229.234km
偏心率 0.0008047 0.000836
轨道倾角 70.731° 70.731°
近地点辐角 340.456° 340.455°
升交点赤经 278.335° 278.725°
平近点角 19.625° 157.148°
近地点 845.282km 845.053km
远地点 856.918km 857.141km
周期 101.953分钟 101.953分钟
每日圈数 14.124208 14.124218
详细信息
使用方式:
暂无
2D轨道图
3D轨道图
轨道高度分析图
轨道倾角分析图
轨道综合分析图
查看轨道综合分析图